sat.trackr.live / text

‹ back to catalog

HULIANWANG DIGUI-14

NORAD 62974 · 2025-030D

PAYLOAD ACTIVE UNKNOWN

§ Identity

Operator
Country
PRC
Launch date
2025-02-11
Launch site
WSC
Launch vehicle
Mass (kg)
RCS (m²)

External: N2YO · Heavens-Above · Gunter

§ Orbital elements

Epoch: 2026-09-22T22:26:43.279296Z

Period
108.33 min
Inclination
50.0021°
Eccentricity
0.0000442
Mean motion
13.29327566 rev/d
Perigee alt
1,149.0 km
Apogee alt
1,149.6 km
Semi-major
7,527.4 km
B*
5.6000e-5
RAAN
245.0410°
Arg perigee
37.2576°
Mean anomaly
322.8327°
Rev number
7,886

§ Raw data

HULIANWANG DIGUI-141 62974U 25030D   26265.93522314 -.00000098  00000+0  56000-4 0  99902 62974  50.0021 245.0410 0000442  37.2576 322.8327 13.29327566 78864

JSON: /api/v1/satellites/62974 · /tle

For live sub-satellite position, see the globe view (requires WebGL).

§ Visibility from observer

Set your observer location to see the next 7 days of passes ≥ 10°. The values pass through the URL so the page stays shareable.

No JS? Fill the form by hand. The geolocation button needs JavaScript.